Vertical_Velocity
-1 -1 -3 1 1 -1 2 6 7 3 3 8 -2 4 -0 4 -4 -1 -2 3 3 -2
7 -2 2 -1 -6 -6 -3 5 2 14 -1 -0 1 3 -3 4 -0 -5 -3 5 5 0
-1 4 1 4 2 -6 -3 9 5 4 22 4 -9 -2 0 -0 -3 2 -3 5 3 -4
4 4 1 1 1 -2 -4 -0 -2 -14 69 -5 83 -8 -6 6 6 -0 -8 4 3 -6
12 2 0 4 3 3 -3 3 6 -3 -9 26 -4 61 5 -2 13 -4 -13 1 -3 -0
0 18 4 1 6 3 9 17 28 7 1 -8 13 3 97 6 3 -2 4 -1 -1 10
-6 -6 2 3 4 5 -5 19 16 -3 -7 15 9 7 0 -3 -2 5 23 3 35 8
-3 -4 -1 -9 1 -5 18 13 22 -9 5 8 48 -16 29 2 7 9 -2 12 2 22
-4 3 -1 7 15 -8 -9 3 11 -9 14 13 33 -11 59 -4 21 -3 9 21 19 3
-6 -2 -5 -1 18 5 10 5 -13 16 0 -3 -1 14 2 25 1 8 18 9 4 2
1 -5 -1 2 -1 3 7 10 1 12 1 4 6 10 4 3 5 21 9 2 7 -4
1 -1 2 4 1 2 2 11 4 3 3 -3 0 2 2 9 9 12 1 6 -5 -1
3 4 -0 2 4 3 9 3 2 3 3 -0 -2 3 9 7 -1 3 1 -7 7 -5
7 3 -0 -3 -1 7 2 4 4 9 8 3 7 15 9 4 -3 2 2 2 1 -6
Height
5610 5612 5615 5619 5622 5627 5632 5636 5637 5640 5643 5647 5649 5653 5656 5660 5662 5664 5667 5668 5670 5670
5590 5590 5593 5598 5600 5606 5612 5619 5622 5623 5627 5631 5634 5640 5643 5647 5649 5651 5654 5657 5659 5659
5564 5566 5568 5572 5577 5583 5591 5600 5606 5609 5612 5614 5617 5625 5628 5634 5636 5639 5643 5645 5646 5648
5534 5535 5539 5545 5550 5557 5567 5576 5584 5592 5588 5601 5590 5607 5612 5618 5623 5626 5629 5632 5632 5635
5502 5503 5510 5519 5526 5534 5543 5551 5560 5567 5578 5586 5591 5590 5595 5604 5610 5613 5616 5619 5620 5624
5484 5484 5488 5494 5503 5511 5523 5532 5541 5546 5556 5564 5571 5578 5571 5588 5595 5600 5602 5605 5608 5611
5471 5470 5470 5475 5483 5491 5503 5514 5520 5528 5539 5544 5553 5562 5568 5572 5581 5588 5590 5591 5591 5595
5460 5459 5461 5465 5469 5474 5481 5493 5501 5513 5521 5527 5532 5548 5554 5561 5569 5575 5578 5580 5582 5585
5451 5450 5451 5454 5456 5463 5468 5477 5487 5501 5507 5516 5524 5534 5541 5549 5556 5560 5564 5569 5572 5576
5441 5441 5444 5445 5448 5452 5459 5469 5480 5490 5499 5509 5515 5520 5530 5541 5545 5547 5554 5556 5562 5568
5432 5434 5436 5437 5439 5445 5451 5462 5471 5479 5489 5497 5504 5512 5522 5528 5533 5540 5544 5550 5556 5560
5424 5428 5430 5431 5434 5440 5446 5453 5463 5471 5479 5488 5496 5504 5510 5518 5528 5537 5539 5545 5549 5554
5424 5426 5427 5427 5429 5436 5445 5452 5458 5465 5472 5480 5489 5497 5508 5517 5522 5529 5535 5539 5543 5546
5428 5429 5430 5431 5434 5440 5447 5453 5459 5466 5473 5481 5491 5500 5506 5513 5520 5525 5529 5533 5537 5540